Overview Statistics Trail Chart Weather Telemetry Raw packets
 

This is the latest recevied weather packets stored in our database for station/object 4S6DRJ-13. If no packets are shown the sender has not sent any weather packets the latest 10 day(s).

<< 314 315 316 317 318 319 320 >>
Time Temp. Humidity Pressure Rain* Wind** Luminosity Snow
1788001883 29.44° C 77% 1007.6 hPa 0 mm 2.24 m/s, 297° 202 W/m² -
1788001822 29.44° C 77% 1007.6 hPa 0 mm 1.79 m/s, 262° 214 W/m² -
1788001761 29.44° C 76% 1007.7 hPa 0 mm 1.79 m/s, 237° 212 W/m² -
1788001700 29.44° C 77% 1007.8 hPa 0 mm 2.68 m/s, 252° 213 W/m² -
1788001640 29.44° C 77% 1007.7 hPa 0 mm 1.34 m/s, 67° 195 W/m² -
1788001578 29.44° C 77% 1007.8 hPa 0 mm 1.79 m/s, 331° 220 W/m² -
1788001517 29.44° C 76% 1007.7 hPa 0 mm 4.02 m/s, 233° 198 W/m² -
1788001457 29.44° C 77% 1007.7 hPa 0 mm 2.68 m/s, 225° 226 W/m² -
1788001395 29.44° C 77% 1007.7 hPa 0 mm 1.34 m/s, 311° 226 W/m² -
1788001334 29.44° C 76% 1007.7 hPa 0 mm 2.24 m/s, 238° 240 W/m² -
1788001273 29.44° C 77% 1007.9 hPa 0 mm 2.24 m/s, 330° 247 W/m² -
1788001213 29.44° C 76% 1007.8 hPa 0 mm 2.24 m/s, 292° 242 W/m² -
1788001151 29.44° C 77% 1007.7 hPa 0 mm 1.79 m/s, 220° 207 W/m² -
1788001090 29.44° C 76% 1007.9 hPa 0 mm 2.24 m/s, 11° 218 W/m² -
1788001029 29.44° C 76% 1007.6 hPa 0 mm 2.24 m/s, 281° 245 W/m² -
1788000968 29.44° C 76% 1007.6 hPa 0 mm 2.24 m/s, 350° 267 W/m² -
1788000907 29.44° C 76% 1007.9 hPa 0 mm 2.68 m/s, 257° 271 W/m² -
1788000846 29.44° C 76% 1007.7 hPa 0 mm 2.68 m/s, 22° 272 W/m² -
1788000785 29.44° C 76% 1007.7 hPa 0 mm 0.89 m/s, 244° 250 W/m² -
1788000724 29.44° C 76% 1007.8 hPa 0 mm 4.47 m/s, 209° 271 W/m² -
1788000663 29.44° C 76% 1007.6 hPa 0 mm 1.79 m/s, 298° 249 W/m² -
1788000602 29.44° C 76% 1007.7 hPa 0 mm 2.24 m/s, 328° 293 W/m² -
1788000541 29.44° C 76% 1007.6 hPa 0 mm 0.89 m/s, 337° 329 W/m² -
1788000480 29.44° C 76% 1007.6 hPa 0 mm 3.13 m/s, 241° 285 W/m² -
1788000420 29.44° C 76% 1007.8 hPa 0 mm 0.45 m/s, 92° 305 W/m² -

* Rain latest hour (hover to see other rain measurements)
** Current wind speed in m/s (hover to see current wind gust speed)